map of PVH home
Great Circle Mapper logo
PVH - Airport
Location
City:  Porto Velho, Rond˘nia, Brazil
Name:Governador Jorge Teixeira de Oliveira
ICAO / IATA:SBPV / PVH

Details
Type:Airport (Aerodrome, Airfield)
Use:Public/Civil, International (customs port of entry)
Latitude:8░42'33"S (-8.709293)
Longitude:63░54'08"W (-63.902280)
Datum:WGS 1984
Elevation:294 ft (90 m)
Variation:12.4░W (WMM2010 magnetic declination)
Runways:1
Longest:7925 × 148 ft (2416 × 45 m), paved

Time
Time Zone:UTC-4
Local Time:

Weather
METAR:SBPV 260800Z 04003KT 9999 SCT007 BKN070 24/23 Q1007

Related Locations
Nearby:
Farthest:KUD: 12300 mi / 19794 km
Kudat, Sabah, MY

Find:

   beyond  
but within

Other Information
Maps:
NOTAMs:
Links:
Sources:

  
flag of Brazil
flag of Rond˘nia
  

Sectional Chart

Flight Planning
at skyvector.com

Satellite Image

Google Maps Satellite View

 

Copyright © 2004-2014 Karl L. Swartz. All rights reserved.
The Great Circle Mapper name and logo are trademarks of the Great Circle Mapper.
All other trademarks mentioned herein belong to their respective owners.
Please see credits for attibutions and further copyright information.

  Follow gcmap on Facebook Follow gcmap on Twitter

hCard Microformat

Geo Microformat